Regional Weather Roundup
Issued by NWS

Home | Current Version | Previous Version | Graphics & Text | Print | Product List | Glossary Off
Versions: 1 2 3 4 5 6 7 8 9 10 11 12 13 14 15 16 17 18 19 20 21 22 23 24 25 26 27 28 29 30 31 32 33 34 35 36 37 38 39 40 41 42 43 44 45 46 47 48 49 50

575
ASUS43 KMKX 191621
RWRWI

WISCONSIN REGIONAL WEATHER ROUNDUP
NATIONAL WEATHER SERVICE MILWAUKEE/SULLIVAN WI
1000 AM CST SUN FEB 19 2017

NOTE: "FAIR" INDICATES FEW OR NO CLOUDS BELOW 12,000 FEET WITH NO
SIGNIFICANT WEATHER AND/OR OBSTRUCTIONS TO VISIBILITY.

WIZ001-002-006>008-014>016-023>028-191700-
NORTHWEST WISCONSIN

CITY           SKY/WX    TMP DP  RH WIND       PRES   REMARKS
SUPERIOR ARPT  PTSUNNY   39  32  75 NE3       30.00R
ASHLAND        CLOUDY    41  32  70 CALM      30.01S
HAYWARD        CLOUDY    46  31  55 SE6       29.98S
SIREN          MOSUNNY   45  35  67 SE3       29.97S
CUMBERLAND     SUNNY     43  34  70 SE7       29.98S
RICE LAKE      SUNNY     45  35  69 CALM      30.00F
CHETEK         SUNNY     45  37  72 SE6       30.00S
LADYSMITH      SUNNY     45  35  69 CALM      30.01S
EAU CLAIRE     CLOUDY    44  35  70 CALM      30.00S
MENOMONIE      SUNNY     39  35  84 CALM      30.00S
NEW RICHMOND   SUNNY     48  38  67 SE8       29.97S
OSCEOLA        SUNNY     47  38  71 SE8       29.99S
$$

WIZ003>005-009-010-017-018-191700-
NORTH CENTRAL WISCONSIN

CITY           SKY/WX    TMP DP  RH WIND       PRES   REMARKS
MANITOWISH WTR MOSUNNY   37  30  74 CALM      30.00S
ARBOR VITAE    MOSUNNY   42  32  68 CALM      30.00S
WOODRUFF       MOSUNNY   42  32  68 CALM      30.00S
RHINELANDER    MOSUNNY   42  32  67 CALM      30.01R
EAGLE RIVER    MOSUNNY   41  28  60 CALM      30.00S
LAND O LAKES   CLOUDY    42  30  63 CALM      30.02R
PHILLIPS       SUNNY     42  33  70 SE3       30.00R
TOMAHAWK       CLOUDY    43  31  63 CALM      30.02R
MEDFORD        SUNNY     42  33  70 E5        30.00S
MERRILL        NOT AVBL
$$

WIZ029-030-035-036-043>047-191700-
CENTRAL WISCONSIN

CITY           SKY/WX    TMP DP  RH WIND       PRES   REMARKS
WAUSAU         SUNNY     44  34  67 CALM      30.01R
MOSINEE        MOSUNNY   45  36  70 CALM      30.03R
MARSHFIELD     SUNNY     44  35  70 SE3       30.01R
STEVENS POINT  SUNNY     42  32  68 CALM      30.03S
WAUPACA        SUNNY     53  35  51 CALM      30.04R
WAUTOMA        SUNNY     48  36  63 CALM      30.04R
WISC RAPIDS    SUNNY     48  36  63 CALM      30.04R
CAMP DOUGLAS   MOSUNNY   48  37  66 E3        30.02R
$$

WIZ011>013-019>022-031-037>040-048>050-191700-
NORTHEAST WISCONSIN

CITY           SKY/WX    TMP DP  RH WIND       PRES   REMARKS
ANTIGO         SUNNY     37  32  83 CALM      30.02R
SHAWANO        SUNNY     49  32  51 CALM      30.05R
OCONTO         SUNNY     47  31  52 NE3       30.04R
STURGEON BAY   SUNNY     47  31  53 NW6       30.04R
GREEN BAY      SUNNY     53  34  48 NE5       30.03S
MANITOWOC      SUNNY     51  31  46 MISG      30.04R
APPLETON       MOSUNNY   48  32  53 CALM      30.02R
CLINTONVILLE   SUNNY     46  32  57 NE3       30.04R
OSHKOSH        SUNNY     48  36  63 CALM      30.03R
$$

WIZ032>034-041-042-053>061-191700-
SOUTHWEST WISCONSIN

CITY           SKY/WX    TMP DP  RH WIND       PRES   REMARKS
LA CROSSE      SUNNY     41  33  73 SE5       30.03R
SPARTA         CLOUDY    43  34  71 CALM      30.04R
VIROQUA        SUNNY     50  33  51 CALM      30.02R
BOSCOBEL       SUNNY     41  33  73 CALM      30.04S
PRAIRIE DU CHI SUNNY     40  35  83 CALM      30.03S
PLATTEVILLE    SUNNY     49  38  65 SE6       30.03S
$$

WIZ056-057-062-063-064-067-068-191700-
SOUTH CENTRAL WISCONSIN

CITY           SKY/WX    TMP DP  RH WIND       PRES   REMARKS
REEDSBURG      SUNNY     48  35  61 CALM      30.03R
BARABOO/DELLS  SUNNY     50  35  56 CALM      30.02S
LONE ROCK      SUNNY     40  34  79 CALM      30.05R
MINERAL POINT  SUNNY     52  34  50 SE6       30.04R
MADISON        MOSUNNY   49  36  61 S3        30.03R
MIDDLETON      SUNNY     51  41  68 CALM      30.04R
WATERTOWN      SUNNY     49  36  58 CALM      30.03S
MONROE         SUNNY     54  34  47 SE6       30.04R
JANESVILLE     MOSUNNY   48  37  66 CALM      30.05R
$$

WIZ051-052-058>065-066-070>072-191700-
SOUTHEAST WISCONSIN

CITY           SKY/WX    TMP DP  RH WIND       PRES   REMARKS
MILWAUKEE      MOSUNNY   57  30  35 NE8       30.05R
WAUKESHA       SUNNY     52  34  50 CALM      30.05R
MILWAUKEE/TIMM SUNNY     54  28  37 NE5       30.05R
RACINE         SUNNY     57  29  34 NE6       30.06R
KENOSHA        SUNNY     55  36  48 E5        30.05R
FOND DU LAC    SUNNY     47  34  60 CALM      30.04R
SHEBOYGAN      SUNNY     51  34  52 CALM      30.04R
WEST BEND      SUNNY     54  32  43 E6        30.04R
JUNEAU         SUNNY     48  36  64 CALM      30.04S
$$

LSZ147-162-191700-
LAKE SUPERIOR

STATION/POSITION TIME  TEMP    WIND        PRES    WAVE
                       AIR SEA DIR/SP/G            HT/PER
                 (UTC) (F)     (DEG/KT/KT) (MB)    (FT/S)
DEVILS ISLAND    1600   38      60/  2/  2 1017.4R
PORT WING        1540   39      CALM  /  2 1015.9F
SAXON HARBOR     1530   35     300/  2/  3 1016.6R
$$

LMZ867-665-643>646-191700-
LAKE MICHIGAN

STATION/POSITION TIME  TEMP    WIND        PRES    WAVE
                       AIR SEA DIR/SP/G            HT/PER
                 (UTC) (F)     (DEG/KT/KT) (MB)    (FT/S)
CHAMBERS ISLAND  1540   50     320/  4/  6 1016.6R
NORTHPORT PIER   1540   42     320/  8/  9 1016.9R
SISTER BAY       1520             CALM       N/A
KEWAUNEE LAKESHO 1554   50     340/  3/  6 1016.6R
SHEBOYGAN LAKESH 1600   49     360/  6/  6 1017.2R
PORT WASHINGTON  1530   54     360/  3/  6 1017.9S
MILWAUKEE LAKESH 1600   49      90/  3/  3   N/A
KENOSHA   LAKESH 1600   51        CALM     1017.3
$$

TC  - TEMPERATURE IN CELSIUS
VSB - VISIBILITY IN STATUTE MILES
WCI - WIND CHILL INDEX
HX  - HEAT INDEX





USA.gov is the U.S. government's official web portal to all federal, state and local government web resources and services.